{"data":{"norad_id":53903,"intl_designator":"2022-119T","name":"STARLINK-5022","alt_names":[],"object_type":"PAYLOAD","status":"ACTIVE","operator":null,"country":"US","launch_date":"2022-09-24","launch_site_code":"AFETR","launch_vehicle":null,"mission":null,"orbit_class":"UNKNOWN","rcs_meters":null,"size_class":null,"mass_kg":null,"dimensions":null,"purposes":["comms"],"wikipedia_slug":null,"has_3d_model":false,"image_url":null,"decayed_at":null,"tle_current":{"epoch":"2026-09-20T10:12:58.180032Z","epoch_age_seconds":93125,"freshness":"FRESH","line1":"1 53903U 22119T   26263.42567338 -.00000668  00000+0 -97612-5 0  9993","line2":"2 53903  53.1591 160.1060 0001007  91.0566 269.0551 15.31704988221217","mean_motion":15.31704988,"eccentricity":0.0001007,"inclination_deg":53.1591,"raan_deg":160.106,"arg_perigee_deg":91.0566,"mean_anomaly_deg":269.0551,"bstar":-9.7612e-6,"rev_number":22121,"period_min":94.012881806976,"perigee_km":470.03544588143,"apogee_km":471.41480671367,"semimajor_km":6848.8621262976,"source":"CELESTRAK","updated_at":"2026-09-21T09:00:33.031297Z"}}}